Overview Statistics Trail Chart Weather Telemetry Raw packets
 

This is the latest recevied weather packets stored in our database for station/object K5KVN. If no packets are shown the sender has not sent any weather packets the latest 10 day(s).

<< 39 40 41 42 43 44 45 >>
Time Temp. Humidity Pressure Rain* Wind** Luminosity Snow
1788088884 22.22° C 72% 1017.9 hPa 0 mm - - -
1788088286 22.22° C 71% 1017.8 hPa 0 mm - - -
1788087685 22.22° C 72% 1017.8 hPa 0 mm - - -
1788087085 21.67° C 73% 1017.8 hPa 0 mm - - -
1788086490 21.67° C 74% 1017.8 hPa 0 mm - - -
1788085884 21.67° C 73% 1017.7 hPa 0 mm - - -
1788085283 21.67° C 73% 1017.5 hPa 0 mm - - -
1788084684 21.67° C 72% 1017.7 hPa 0 mm - - -
1788084084 21.67° C 72% 1017.7 hPa 0 mm - - -
1788083485 22.22° C 71% 1017.8 hPa 0 mm - - -
1788082882 22.78° C 69% 1017.8 hPa 0 mm - - -
1788082297 22.78° C 69% 1017.8 hPa 0 mm - - -
1788081742 23.33° C 68% 1017.7 hPa 0 mm - - -
1788081084 23.33° C 67% 1017.7 hPa 0 mm - - -
1788080484 23.33° C 66% 1017.7 hPa 0 mm - - -
1788079883 23.33° C 65% 1017.7 hPa 0 mm - - -
1788079280 23.89° C 64% 1017.4 hPa 0 mm - - -
1788078681 24.44° C 63% 1017.4 hPa 0 mm - - -
1788078080 24.44° C 62% 1017.3 hPa 0 mm - - -
1788077480 24.44° C 62% 1017.3 hPa 0 mm - - -
1788076881 24.44° C 62% 1017.4 hPa 0 mm - - -
1788076280 24.44° C 63% 1017.3 hPa 0 mm - - -
1788075682 24.44° C 63% 1017.3 hPa 0 mm - - -
1788075081 23.89° C 64% 1017.3 hPa 0 mm - - -
1788074488 23.89° C 66% 1017.4 hPa 0 mm - - -

* Rain latest hour (hover to see other rain measurements)
** Current wind speed in m/s (hover to see current wind gust speed)